CARTOSAT-2F

Last updated on Mon Sep 07 2026 00:02:46 GMT+0000 (Coordinated Universal Time)

1 43111U 18004A 26249.61733674 .00002812 00000+0 13676-3 0 9991 2 43111 97.4717 308.4198 0001622 29.9374 330.1953 15.19231431479694
UTC large
Height (km)
Speed (km/s)
/
Latitude / Longitude
Inclination (degrees)
Orbital Period (minutes)
Azimuth
Elevation
Range (km)
Doppler Factor

Next 0 passes for location: London (51.5072 / 0.1276)

No passes found over London.
CARTOSAT-2F